Weather History for Marrakech, Morocco

Change the Weather History Date:

Tuesday, February 12, 2013

  Actual Average Record
Temperature  
Mean Temperature 56 °F -  
Max Temperature 69 °F 69 °F 82 °F (2007)
Min Temperature 42 °F 47 °F 33 °F (2006)
Degree Days  
Heating Degree Days 10    
Growing Degree Days 6 (Base 50)    
Moisture  
Dew Point 43 °F    
Average Humidity 64    
Maximum Humidity 93    
Minimum Humidity 21    
Precipitation  
Precipitation 0.00 in 0.05 in - ()
Sea Level Pressure  
Sea Level Pressure 30.22 in    
Wind  
Wind Speed 7 mph ()    
Max Wind Speed 13 mph    
Max Gust Speed -    
Visibility 6.2 miles    
Events      
Averages and records for this station are not official NWS values.
T = Trace of Precipitation, MM = Missing Value Source: Averaged Metar Reports

Daily Weather History Graph

Daily Weather History Graph

Search for Another Location

Airport:

Trip Planner

Search our weather history database for the weather conditions in past years. The results will help you decide how hot, cold, wet, or windy it might be!

Date:

Astronomy

Feb. 12, 2013 Rise Set
Actual Time 7:16 AM WET 6:16 PM WET
Civil Twilight 6:51 AM WET 6:41 PM WET
Nautical Twilight 6:22 AM WET 7:10 PM WET
Astronomical Twilight 5:54 AM WET 7:38 PM WET
Moon 8:18 AM WET (2/12) 8:48 PM WET (2/12)
Length of Visible Light 11h 49m
Length of Day
11h 00m
Waxing Crescent, 6% of the Moon is Illuminated
Feb 12
Waxing Crescent
Feb 17
First Quarter
Feb 25
Full
Mar 4
Last Quarter
Mar 11
New

Hourly Weather History & Observations

Time (WET) Temp. Windchill Dew Point Humidity Pressure Visibility Wind Dir Wind Speed Gust Speed Precip Events Conditions
12:00 AM 51 °F - 44 °F 71% 30.27 in 6 mi NE 5.8 mph - -   Scattered Clouds
12:00 AM 51.8 °F - 44.6 °F 76% 30.24 in 6.2 mi NNE 6.9 mph - N/A   Scattered Clouds
1:30 AM 51.8 °F - 46.4 °F 82% 30.24 in 6.2 mi ENE 8.1 mph - N/A   Scattered Clouds
2:00 AM 50.0 °F - 44.6 °F 82% 30.24 in 6.2 mi ENE 8.1 mph - N/A   Scattered Clouds
2:30 AM 50.0 °F - 44.6 °F 82% 30.24 in 6.2 mi ENE 6.9 mph - N/A   Scattered Clouds
3:00 AM 49 °F - 45 °F 79% 30.26 in 6 mi ENE 5.8 mph - -   Scattered Clouds
3:00 AM 48.2 °F - 44.6 °F 87% 30.24 in 6.2 mi ENE 5.8 mph - N/A   Scattered Clouds
3:30 AM 48.2 °F - 44.6 °F 87% 30.24 in 6.2 mi ENE 6.9 mph - N/A   Scattered Clouds
4:00 AM 50.0 °F - 44.6 °F 82% 30.24 in 6.2 mi ENE 8.1 mph - N/A   Scattered Clouds
4:30 AM 48.2 °F - 44.6 °F 87% 30.21 in 6.2 mi ENE 6.9 mph - N/A   Scattered Clouds
5:00 AM 46.4 °F 43.5 °F 42.8 °F 87% 30.21 in 6.2 mi ENE 5.8 mph - N/A   Scattered Clouds
5:30 AM 48.2 °F - 42.8 °F 82% 30.21 in 6.2 mi ENE 5.8 mph - N/A   Scattered Clouds
6:00 AM 47 °F - 43 °F 82% 30.26 in 6 mi East 5.8 mph - -   Scattered Clouds
6:00 AM 46.4 °F 43.5 °F 42.8 °F 87% 30.21 in 6.2 mi East 5.8 mph - N/A   Scattered Clouds
6:30 AM 46.4 °F 44.3 °F 42.8 °F 87% 30.24 in 6.2 mi East 4.6 mph - N/A   Scattered Clouds
7:00 AM 44.6 °F 41.4 °F 42.8 °F 93% 30.24 in 6.2 mi East 5.8 mph - N/A   Partly Cloudy
7:30 AM 46.4 °F 42.9 °F 42.8 °F 87% 30.24 in 6.2 mi ESE 6.9 mph - N/A   Partly Cloudy
8:00 AM 46.4 °F 42.9 °F 44.6 °F 93% 30.24 in 6.2 mi East 6.9 mph - N/A   Partly Cloudy
8:30 AM 50.0 °F - 44.6 °F 82% 30.24 in - East 8.1 mph - N/A   Clear
9:00 AM 53 °F - 46 °F 69% 30.26 in 6 mi East 11.5 mph - -  
9:00 AM 53.6 °F - 46.4 °F 77% 33.20 in - East 10.4 mph - N/A   Clear
9:30 AM 53.6 °F - 46.4 °F 77% 30.27 in 6.2 mi ENE 11.5 mph - N/A   Scattered Clouds
10:00 AM 55.4 °F - 46.4 °F 72% 30.27 in 6.2 mi ENE 10.4 mph - N/A   Scattered Clouds
10:30 AM 57.2 °F - 44.6 °F 63% 30.27 in 6.2 mi NE 11.5 mph - N/A   Scattered Clouds
11:00 AM 59.0 °F - 44.6 °F 59% 30.27 in 6.2 mi NE 10.4 mph - N/A   Scattered Clouds
11:30 AM 60.8 °F - 44.6 °F 55% 30.24 in 6.2 mi ENE 9.2 mph - N/A   Scattered Clouds
12:00 PM 62 °F - 44 °F 40% 30.23 in 6 mi NE 8.1 mph - -   Partly Cloudy
12:00 PM 62.6 °F - 42.8 °F 48% 30.24 in 6.2 mi NE 8.1 mph - N/A   Scattered Clouds
12:30 PM 62.6 °F - 42.8 °F 48% 30.24 in 6.2 mi NE 8.1 mph - N/A   Scattered Clouds
1:00 PM 64.4 °F - 42.8 °F 45% 30.21 in 6.2 mi NE 9.2 mph - N/A   Scattered Clouds
1:30 PM 66.2 °F - 42.8 °F 43% 30.21 in 6.2 mi NE 5.8 mph - N/A   Scattered Clouds
2:00 PM 68.0 °F - 42.8 °F 40% 30.18 in 6.2 mi Variable 4.6 mph - N/A   Scattered Clouds
2:30 PM 68.0 °F - 39.2 °F 35% 30.18 in 6.2 mi NE 8.1 mph - N/A   Scattered Clouds
3:00 PM 68 °F - 37 °F 21% 30.14 in 6 mi NE 10.4 mph - -   Partly Cloudy
3:00 PM 68.0 °F - 37.4 °F 33% 30.18 in 6.2 mi NE 10.4 mph - N/A   Scattered Clouds
3:30 PM 69.8 °F - 39.2 °F 33% 30.18 in 6.2 mi NE 9.2 mph - N/A   Partly Cloudy
4:00 PM 68.0 °F - 37.4 °F 33% 30.18 in 6.2 mi NE 12.7 mph - N/A   Partly Cloudy
4:30 PM 68.0 °F - 37.4 °F 33% 30.18 in 6.2 mi NE 10.4 mph - N/A   Partly Cloudy
5:00 PM 68.0 °F - 37.4 °F 33% 30.18 in 6.2 mi East 11.5 mph - N/A   Partly Cloudy
5:30 PM 68.0 °F - 37.4 °F 33% 30.18 in 6.2 mi ENE 9.2 mph - N/A   Partly Cloudy
6:00 PM 67 °F - 38 °F 23% 30.15 in 6 mi East 8.1 mph - -   Scattered Clouds
6:00 PM 68.0 °F - 37.4 °F 33% 30.18 in 6.2 mi East 8.1 mph - N/A   Partly Cloudy
6:30 PM 62.6 °F - 37.4 °F 39% 30.18 in 6.2 mi NE 9.2 mph - N/A   Partly Cloudy
7:00 PM 60.8 °F - 39.2 °F 45% 30.18 in 6.2 mi ENE 9.2 mph - N/A   Partly Cloudy
7:30 PM 60.8 °F - 39.2 °F 45% 30.18 in 6.2 mi ENE 8.1 mph - N/A   Partly Cloudy
8:00 PM 59.0 °F - 41.0 °F 51% 30.21 in 6.2 mi ENE 6.9 mph - N/A   Partly Cloudy
8:30 PM 59.0 °F - 46.4 °F 63% 30.21 in 6.2 mi NNE 12.7 mph - N/A   Partly Cloudy
9:00 PM 56 °F - 48 °F 68% 30.21 in 6 mi NE 11.5 mph - -   Scattered Clouds
9:00 PM 55.4 °F - 48.2 °F 77% 30.21 in 6.2 mi NE 10.4 mph - N/A   Partly Cloudy
9:30 PM 55.4 °F - 48.2 °F 77% 30.21 in 6.2 mi NE 11.5 mph - N/A   Partly Cloudy
10:00 PM 53.6 °F - 48.2 °F 82% 30.21 in 6.2 mi NE 12.7 mph - N/A   Partly Cloudy
10:30 PM 53.6 °F - 48.2 °F 82% 30.21 in 6.2 mi ENE 11.5 mph - N/A   Partly Cloudy
11:00 PM 51.8 °F - 48.2 °F 88% 30.21 in 6.2 mi ENE 9.2 mph - N/A   Partly Cloudy
11:30 PM 51.8 °F - 48.2 °F 88% 30.21 in 6.2 mi ENE 8.1 mph - N/A   Partly Cloudy